Погода в Ново-Осетинской

Россия / Республика Северная Осетия — Алания     43°42′11″N   44°23′42″E
темп.,
°C
ветер,
м/с
пор.,
м/с
влажн.,
%
обл.,
%
осадки,
мм/ч
давл.,
гПа
погр.,
м
8 мая, сб
сб800:00+13юз11667 0.0 101811
03:00+11з22775 0.0 101810
06:00+13ю01785 0.0 101827
09:00+19в3558100 0.0 1016603
12:00+23в564322 0.0 10141324
15:00+23в5641100 0.0 10131485
18:00+19в4960100 0.0 1013244
21:00+13в47745 0.0 1013131
9 мая, вс
вс900:00+11в338551 0.0 101152
03:00+10в2291100 0.0 100930
06:00+12зюз0085100 0.0 100955
09:00+18сз336673 0.0 1008506
12:00+22ссз545510 0.0 10071265
15:00+16сз91378100 0.1 1010914
18:00+8зсз122086100 2.0 1015845
21:00+6зсз91889100 4.2 1020878
10 мая, пн
пн1000:00+8зсз61385100 1.1 1022923
03:00+8зсз61279100 1.1 1022687
06:00+8зюз41080100 0.0 1022674
09:00+13зсз6948100 0.0 10211973
12:00+14зсз684299 0.0 10202168
15:00+16зсз564177 0.0 10192105
18:00+12зсз5763100 0.0 1020447
21:00+8з4880100 0.1 1021193
11 мая, вт
вт1100:00+8зюз3489100 0.9 1021189
03:00+7юз1184100 0.9 102013
06:00+8ссв1182100 0.0 102089
09:00+11в4565100 0.0 1020925
12:00+13в565792 0.0 10191360
15:00+15всв5456100 0.1 10181169
18:00+15вюв11635 0.0 1018113
21:00+10вюв3378100 0.0 101928
12 мая, ср
ср1200:00+8в34825 0.0 101851
03:00+7в228614 0.0 101827
06:00+8в368636 0.0 1019187
09:00+14в57640 0.0 1017920
12:00+19в565446 0.0 10161475
15:00+21в445041 0.0 10151621
18:00+19в23640 0.0 101572
21:00+13юв33770 0.0 101631